Regional Weather Roundup
Issued by NWS

Home | Current Version | Previous Version | Text Only | Print | Product List | Glossary Off
Versions: 1 2 3 4 5 6 7 8 9 10 11 12 13 14 15 16 17 18 19 20 21 22 23 24 25 26 27 28 29 30 31 32 33 34 35 36 37 38 39 40 41 42 43 44 45 46 47 48 49 50

000
ASUS43 KBIS 210110
RWRND

NORTH DAKOTA REGIONAL WEATHER ROUNDUP
NATIONAL WEATHER SERVICE BISMARCK ND
800 PM CDT FRI APR 20 2018

NOTE: "FAIR" INDICATES FEW OR NO CLOUDS BELOW 12,000 FEET WITH NO
SIGNIFICANT WEATHER AND/OR OBSTRUCTIONS TO VISIBILITY.


NDZ001>003-009>011-017-210200-
NORTHWEST NORTH DAKOTA

CITY           SKY/WX    TMP DP  RH WIND       PRES   REMARKS
WILLISTON      CLEAR     63  29  27 SE13      30.12S
MINOT          MOCLDY    55  34  45 SE16      30.20S
MINOT AFB      PTCLDY    54  37  52 SE16      30.19S
$$

NDZ018>021-031>035-040>046-210200-
SOUTHWEST NORTH DAKOTA

CITY           SKY/WX    TMP DP  RH WIND       PRES   REMARKS
BISMARCK       PTCLDY    54  30  40 S16       30.26R
DICKINSON      CLEAR     54  34  46 S16       30.15R
GARRISON         N/A     50  31  48 S14       30.20R
HETTINGER ARPT MOCLDY    49  37  63 SE17G25   30.19R
$$

NDZ004>008-012>016-024-026-027-054-210200-
NORTHEAST NORTH DAKOTA

CITY           SKY/WX    TMP DP  RH WIND       PRES   REMARKS
GRAND FORKS    FAIR      48  38  68 S7        30.34F
GRND FRKS AFB  FAIR      49  33  53 S8        30.34F
DEVILS LAKE    FAIR      45  33  63 SE8       30.30S
$$

NDZ022-023-025-028>030-036>039-047>053-210200-
SOUTHEAST NORTH DAKOTA

CITY           SKY/WX    TMP DP  RH WIND       PRES   REMARKS
FARGO          FAIR      51  36  56 S12       30.35F
JAMESTOWN      PTCLDY    51  36  56 S8        30.29F
$$





USA.gov is the U.S. government's official web portal to all federal, state and local government web resources and services.